TimeCST,TemperatureF,Dew PointF,Humidity,Sea Level PressureIn,VisibilityMPH,Wind Direction,Wind SpeedMPH,Gust SpeedMPH,PrecipitationIn,Events,Conditions,WindDirDegrees,DateUTC
6:00 AM,74,71,89,29.88,12,ENE,3.5,,,,Overcast,60,2013-10-31 12:00:00
6:00 AM,73.4,71.6,94,29.86,6.2,ENE,3.5,-,N/A,,Mostly Cloudy,60,2013-10-31 12:00:00
7:00 AM,75.2,71.6,89,29.87,6.2,NNE,5.8,-,N/A,,Scattered Clouds,30,2013-10-31 13:00:00
8:00 AM,82.4,73.4,74,29.88,6.2,ESE,2.3,-,N/A,,Scattered Clouds,120,2013-10-31 14:00:00
9:00 AM,82,73,69,29.91,12,SSE,4.6,,,,Partly Cloudy,150,2013-10-31 15:00:00
9:00 AM,82.4,73.4,74,29.89,6.2,SSE,4.6,-,N/A,,Scattered Clouds,150,2013-10-31 15:00:00
10:00 AM,84.2,73.4,70,29.89,6.2,South,4.6,-,N/A,,Mostly Cloudy,190,2013-10-31 16:00:00
11:00 AM,87.8,73.4,62,29.87,6.2,SE,3.5,-,N/A,,Scattered Clouds,140,2013-10-31 17:00:00
12:00 PM,87,73,55,29.85,12,SW,3.5,,,,Partly Cloudy,230,2013-10-31 18:00:00
12:00 PM,87.8,73.4,62,29.84,6.2,SW,3.5,-,N/A,,Scattered Clouds,230,2013-10-31 18:00:00
1:00 PM,89.6,73.4,59,29.80,6.2,WNW,4.6,-,N/A,,Scattered Clouds,290,2013-10-31 19:00:00
2:00 PM,87.8,75.2,66,29.76,6.2,WNW,6.9,-,N/A,,Mostly Cloudy,290,2013-10-31 20:00:00
3:00 PM,88,74,56,29.76,12,WNW,9.2,,,,Overcast,290,2013-10-31 21:00:00
3:00 PM,87.8,75.2,66,29.75,6.2,WNW,9.2,-,N/A,,Mostly Cloudy,290,2013-10-31 21:00:00
4:00 PM,86.0,75.2,70,29.75,6.2,WNW,5.8,-,N/A,,Overcast,290,2013-10-31 22:00:00
5:00 PM,84.2,73.4,70,29.77,6.2,West,4.6,-,N/A,,Mostly Cloudy,280,2013-10-31 23:00:00
6:00 PM,81,75,76,29.81,12,WSW,3.5,,,,Overcast,250,2013-11-01 00:00:00
6:00 PM,80.6,75.2,84,29.80,6.2,WSW,3.5,-,N/A,,Mostly Cloudy,250,2013-11-01 00:00:00
7:00 PM,80.6,75.2,84,29.83,6.2,South,3.5,-,N/A,,Mostly Cloudy,180,2013-11-01 01:00:00
8:00 PM,78.8,75.2,89,29.86,6.2,SSE,4.6,-,N/A,,Mostly Cloudy,150,2013-11-01 02:00:00